Location: Santaluz Observatory
(32.9930°N, 117.1510°W)
Time: 04:21:18
(UTC-08:00)

Hubble Space Telescope - Visible Passes

Search period start: 26 February 2017 00:00
Search period end: 08 March 2017 00:00
Orbit: 538 x 542 km, 28.5° (Epoch: 25 February)

Date Brightness Start Highest point End Pass type
(mag) Time Alt. Az. Time Alt. Az. Time Alt. Az.
26 Feb 1.5 19:19:44 10° WSW 19:23:37 40° S 19:23:37 40° S visible
27 Feb 1.4 19:09:41 10° WSW 19:13:36 43° S 19:14:18 39° SSE visible
28 Feb 1.4 18:59:40 10° WSW 19:03:36 44° S 19:04:58 32° SE visible
01 Mar 1.4 18:49:39 10° WSW 18:53:36 44° S 18:55:38 24° ESE visible
01 Mar 3.9 20:30:53 10° WSW 20:31:01 11° WSW 20:31:01 11° WSW visible
02 Mar 1.5 18:39:40 10° WSW 18:43:36 43° S 18:46:19 18° ESE visible
02 Mar 3.6 20:21:01 10° WSW 20:21:42 14° WSW 20:21:42 14° WSW visible
03 Mar 1.6 18:29:41 10° WSW 18:33:35 41° S 18:37:01 13° ESE visible
03 Mar 3.4 20:11:12 10° WSW 20:12:23 16° WSW 20:12:23 16° WSW visible
04 Mar 1.8 18:19:43 10° WSW 18:23:35 38° S 18:27:26 10° ESE visible
04 Mar 3.2 20:01:28 10° WSW 20:03:07 16° SW 20:03:07 16° SW visible
05 Mar 2.0 18:09:46 10° WSW 18:13:33 35° S 18:17:20 10° SE visible
05 Mar 3.2 19:51:51 10° WSW 19:53:54 15° SSW 19:53:54 15° SSW visible
06 Mar 3.3 19:42:31 10° SW 19:44:14 12° SSW 19:44:44 12° SSW visible
